| time (UTC) | temp C | wind direction | speed KPH | gust KPH | rain 1hr cm | rain 24hr cm | rain mn cm | humidity % | barometer mb |
| 20260902020804 | 8 | 20 | 3.2 | 4.8 | 0.00 | 0.25 | 0.25 | 98 | 1005.5 |
| 20260902010805 | 8 | 358 | 3.2 | 4.8 | 0.13 | 0.25 | 0.25 | 96 | 1005.2 |
| 20260902010305 | 8 | 14 | 3.2 | 9.7 | 0.13 | 0.25 | 0.25 | 95 | 1005.1 |
| 20260902000805 | 10 | 284 | 4.8 | 8.0 | 0.13 | 0.13 | 0.13 | 93 | 1004.7 |
| 20260902000304 | 10 | 273 | 8.0 | 9.7 | 0.13 | 0.13 | 0.13 | 93 | 1004.7 |
| 20260901230805 | 13 | 244 | 1.6 | 4.8 | 0.00 | 0.00 | 0.00 | 65 | 1004.2 |
| 20260901230305 | 12 | 295 | 1.6 | 11.3 | 0.00 | 0.00 | 0.00 | 65 | 1004.2 |
| 20260901220305 | 11 | 268 | 3.2 | 14.5 | 0.00 | 0.00 | 0.00 | 73 | 1004.4 |
| 20260901210805 | 11 | 289 | 3.2 | 12.9 | 0.00 | 0.00 | 0.00 | 76 | 1004.4 |
| 20260901210305 | 11 | 304 | 1.6 | 9.7 | 0.00 | 0.00 | 0.00 | 76 | 1004.4 |
| 20260901200805 | 11 | 310 | 3.2 | 8.0 | 0.00 | 0.00 | 0.00 | 76 | 1004.3 |
| 20260901200305 | 11 | 287 | 1.6 | 11.3 | 0.00 | 0.00 | 0.00 | 75 | 1004.3 |
| 20260901190805 | 9 | 119 | 6.4 | 11.3 | 0.00 | 0.00 | 0.00 | 78 | 1004.6 |
| 20260901190305 | 9 | 278 | 6.4 | 14.5 | 0.00 | 0.00 | 0.00 | 80 | 1004.7 |
| 20260901180804 | 8 | 281 | 8.0 | 12.9 | 0.00 | 0.00 | 0.00 | 86 | 1004.7 |
| 20260901180305 | 8 | 281 | 8.0 | 12.9 | 0.00 | 0.00 | 0.00 | 87 | 1004.6 |
| 20260901170805 | 7 | 261 | 3.2 | 4.8 | 0.00 | 0.00 | 0.00 | 92 | 1004.5 |
| 20260901160804 | 7 | 290 | 3.2 | 4.8 | 0.00 | 0.00 | 0.00 | 95 | 1004.4 |
| 20260901150805 | 6 | 273 | 4.8 | 8.0 | 0.00 | 0.00 | 0.00 | 98 | 1003.9 |
| 20260901150304 | 6 | 272 | 6.4 | 11.3 | 0.00 | 0.00 | 0.00 | 98 | 1003.9 |
| 20260901140804 | 6 | 272 | 8.0 | 14.5 | 0.00 | 0.00 | 0.00 | 98 | 1003.5 |
| 20260901140304 | 6 | 282 | 9.7 | 12.9 | 0.00 | 0.00 | 0.00 | 98 | 1003.5 |
| 20260901130805 | 6 | 262 | 8.0 | 11.3 | 0.00 | 0.00 | 0.00 | 98 | 1003.1 |
| 20260901120305 | 6 | 142 | 1.6 | 11.3 | 0.00 | 0.00 | 0.00 | 98 | 1002.7 |
| 20260901110805 | 6 | 280 | 6.4 | 9.7 | 0.00 | 0.00 | 0.00 | 96 | 1002.2 |
| 20260901110305 | 6 | 277 | 6.4 | 12.9 | 0.00 | 0.00 | 0.00 | 97 | 1002.2 |
| 20260901100804 | 7 | 272 | 4.8 | 8.0 | 0.00 | 0.00 | 0.00 | 95 | 1001.9 |
| 20260901100305 | 7 | 270 | 4.8 | 9.7 | 0.00 | 0.00 | 0.00 | 95 | 1001.9 |
| 20260901090805 | 7 | 273 | 4.8 | 4.8 | 0.00 | 0.00 | 0.00 | 93 | 1001.5 |
| 20260901090305 | 7 | 272 | 3.2 | 8.0 | 0.00 | 0.00 | 0.00 | 93 | 1001.4 |
| 20260901080805 | 7 | 250 | 3.2 | 4.8 | 0.00 | 0.00 | 0.00 | 91 | 1001.1 |
| 20260901080304 | 7 | 349 | 3.2 | 4.8 | 0.00 | 0.00 | 0.00 | 91 | 1001.1 |
| 20260901070812 | 8 | 232 | 0.0 | 3.2 | 0.00 | 0.00 | 0.00 | 87 | 1000.5 |
| 20260901060805 | 8 | 36 | 3.2 | 4.8 | 0.00 | 0.00 | 0.00 | 83 | 999.9 |
| 20260901060305 | 8 | 14 | 4.8 | 9.7 | 0.00 | 0.00 | 0.00 | 81 | 999.9 |
| 20260901050804 | 9 | 314 | 4.8 | 9.7 | 0.00 | 0.00 | 0.00 | 82 | 999.3 |
| 20260901050304 | 9 | 291 | 4.8 | 9.7 | 0.00 | 0.00 | 0.00 | 83 | 999.2 |
| 20260901040804 | 10 | 167 | 4.8 | 8.0 | 0.00 | 0.00 | 0.00 | 79 | 998.7 |
| 20260901040304 | 10 | 323 | 3.2 | 8.0 | 0.00 | 0.00 | 0.00 | 79 | 998.7 |
| 20260901030804 | 11 | 46 | 1.6 | 4.8 | 0.00 | 0.00 | 0.00 | 74 | 998.3 |
| 20260901030305 | 11 | 75 | 1.6 | 8.0 | 0.00 | 0.00 | 0.00 | 73 | 998.2 |